| time (UTC) | temp C | wind direction | speed KPH | gust KPH | rain 1hr cm | rain 24hr cm | rain mn cm | humidity % | barometer mb |
| 20260503211536 | 23 | 110 | 0.0 | 1.6 | 0.00 | 0.00 | 0.00 | 17 | 1017.3 |
| 20260503210517 | 23 | 146 | 1.6 | 4.8 | 0.00 | 0.00 | 0.00 | 16 | 1017.4 |
| 20260503205537 | 23 | 265 | 0.0 | 3.2 | 0.00 | 0.00 | 0.00 | 17 | 1017.5 |
| 20260503204515 | 23 | 274 | 1.6 | 6.4 | 0.00 | 0.00 | 0.00 | 16 | 1017.8 |
| 20260503203515 | 23 | 38 | 3.2 | 14.5 | 0.00 | 0.00 | 0.00 | 17 | 1017.9 |
| 20260503202535 | 23 | 112 | 1.6 | 4.8 | 0.00 | 0.00 | 0.00 | 15 | 1018.1 |
| 20260503201536 | 23 | 120 | 1.6 | 6.4 | 0.00 | 0.00 | 0.00 | 16 | 1018.3 |
| 20260503200516 | 23 | 305 | 1.6 | 4.8 | 0.00 | 0.00 | 0.00 | 16 | 1018.5 |
| 20260503195517 | 23 | 301 | 1.6 | 11.3 | 0.00 | 0.00 | 0.00 | 16 | 1018.5 |
| 20260503194015 | 23 | 206 | 0.0 | 3.2 | 0.00 | 0.00 | 0.00 | 16 | 1018.7 |
| 20260503193015 | 22 | 130 | 1.6 | 4.8 | 0.00 | 0.00 | 0.00 | 16 | 1018.8 |
| 20260503192016 | 22 | 141 | 3.2 | 6.4 | 0.00 | 0.00 | 0.00 | 15 | 1018.9 |
| 20260503191056 | 22 | 134 | 1.6 | 4.8 | 0.00 | 0.00 | 0.00 | 17 | 1019.2 |
| 20260503190037 | 22 | 269 | 1.6 | 3.2 | 0.00 | 0.00 | 0.00 | 18 | 1019.5 |
| 20260503185017 | 21 | 52 | 1.6 | 8.0 | 0.00 | 0.00 | 0.00 | 20 | 1019.6 |
| 20260503184037 | 21 | 80 | 1.6 | 4.8 | 0.00 | 0.00 | 0.00 | 20 | 1019.8 |
| 20260503183015 | 21 | 214 | 1.6 | 3.2 | 0.00 | 0.00 | 0.00 | 21 | 1020.0 |
| 20260503182015 | 21 | 352 | 0.0 | 3.2 | 0.00 | 0.00 | 0.00 | 22 | 1020.1 |
| 20260503181015 | 20 | 80 | 0.0 | 3.2 | 0.00 | 0.00 | 0.00 | 23 | 1020.3 |
| 20260503180016 | 20 | 65 | 1.6 | 9.7 | 0.00 | 0.00 | 0.00 | 23 | 1020.3 |
| 20260503175016 | 19 | 250 | 1.6 | 4.8 | 0.00 | 0.00 | 0.00 | 24 | 1020.5 |
| 20260503174017 | 18 | 243 | 1.6 | 6.4 | 0.00 | 0.00 | 0.00 | 24 | 1020.7 |
| 20260503173037 | 18 | 257 | 4.8 | 12.9 | 0.00 | 0.00 | 0.00 | 24 | 1020.9 |
| 20260503172015 | 18 | 254 | 1.6 | 6.4 | 0.00 | 0.00 | 0.00 | 23 | 1021.1 |
| 20260503171015 | 18 | 234 | 3.2 | 9.7 | 0.00 | 0.00 | 0.00 | 23 | 1021.2 |
| 20260503131017 | 10 | 134 | 3.2 | 8.0 | 0.00 | 0.00 | 0.00 | 40 | 1021.7 |
| 20260503081015 | 10 | 133 | 3.2 | 6.4 | 0.00 | 0.00 | 0.00 | 36 | 1021.5 |
| 20260503072037 | 10 | 130 | 1.6 | 4.8 | 0.00 | 0.00 | 0.00 | 34 | 1021.9 |
| 20260503071015 | 11 | 135 | 1.6 | 4.8 | 0.00 | 0.00 | 0.00 | 34 | 1021.9 |
| 20260503055015 | 11 | 134 | 6.4 | 12.9 | 0.00 | 0.00 | 0.00 | 33 | 1022.0 |
| 20260503054015 | 11 | 133 | 6.4 | 16.1 | 0.00 | 0.00 | 0.00 | 33 | 1022.0 |
| 20260503053036 | 11 | 135 | 6.4 | 12.9 | 0.00 | 0.00 | 0.00 | 34 | 1021.9 |
| 20260503052016 | 11 | 136 | 4.8 | 14.5 | 0.00 | 0.00 | 0.00 | 33 | 1021.9 |
| 20260503051016 | 11 | 138 | 4.8 | 12.9 | 0.00 | 0.00 | 0.00 | 33 | 1022.0 |
| 20260503050037 | 11 | 141 | 4.8 | 9.7 | 0.00 | 0.00 | 0.00 | 33 | 1022.0 |
| 20260503045015 | 11 | 137 | 3.2 | 12.9 | 0.00 | 0.00 | 0.00 | 33 | 1022.0 |
| 20260503044015 | 11 | 134 | 3.2 | 11.3 | 0.00 | 0.00 | 0.00 | 33 | 1022.1 |
| 20260503043016 | 11 | 137 | 4.8 | 17.7 | 0.00 | 0.00 | 0.00 | 33 | 1022.2 |
| 20260503042016 | 12 | 135 | 4.8 | 14.5 | 0.00 | 0.00 | 0.00 | 33 | 1022.2 |
| 20260503041016 | 12 | 135 | 4.8 | 14.5 | 0.00 | 0.00 | 0.00 | 33 | 1022.2 |
| 20260503040017 | 12 | 136 | 6.4 | 19.3 | 0.00 | 0.00 | 0.00 | 32 | 1022.2 |
| 20260503035014 | 12 | 134 | 3.2 | 11.3 | 0.00 | 0.00 | 0.00 | 31 | 1022.2 |
| 20260503034015 | 13 | 136 | 4.8 | 14.5 | 0.00 | 0.00 | 0.00 | 31 | 1022.1 |
| 20260503033035 | 13 | 135 | 4.8 | 16.1 | 0.00 | 0.00 | 0.00 | 30 | 1022.1 |
| 20260503032016 | 13 | 134 | 4.8 | 16.1 | 0.00 | 0.00 | 0.00 | 30 | 1022.0 |
| 20260503031016 | 13 | 136 | 4.8 | 14.5 | 0.00 | 0.00 | 0.00 | 30 | 1021.9 |
| 20260503030017 | 14 | 139 | 6.4 | 16.1 | 0.00 | 0.00 | 0.00 | 31 | 1021.8 |
| 20260503025017 | 14 | 135 | 4.8 | 11.3 | 0.00 | 0.00 | 0.00 | 31 | 1021.8 |
| 20260503024015 | 15 | 136 | 3.2 | 14.5 | 0.00 | 0.00 | 0.00 | 31 | 1021.8 |
| 20260503023015 | 15 | 135 | 3.2 | 11.3 | 0.00 | 0.00 | 0.00 | 30 | 1021.7 |
| 20260503022016 | 15 | 133 | 3.2 | 9.7 | 0.00 | 0.00 | 0.00 | 29 | 1021.6 |
| 20260503021016 | 16 | 133 | 3.2 | 9.7 | 0.00 | 0.00 | 0.00 | 28 | 1021.3 |
| 20260503020016 | 16 | 139 | 3.2 | 9.7 | 0.00 | 0.00 | 0.00 | 28 | 1021.1 |
| 20260503015017 | 17 | 135 | 3.2 | 9.7 | 0.00 | 0.00 | 0.00 | 27 | 1021.1 |
| 20260503014017 | 17 | 136 | 1.6 | 9.7 | 0.00 | 0.00 | 0.00 | 26 | 1021.0 |
| 20260503013015 | 18 | 143 | 3.2 | 8.0 | 0.00 | 0.00 | 0.00 | 23 | 1021.0 |
| 20260503012015 | 18 | 127 | 0.0 | 3.2 | 0.00 | 0.00 | 0.00 | 22 | 1020.9 |
| 20260503011035 | 18 | 95 | 0.0 | 3.2 | 0.00 | 0.00 | 0.00 | 20 | 1020.9 |
| 20260503010016 | 18 | 84 | 0.0 | 3.2 | 0.00 | 0.00 | 0.00 | 20 | 1020.9 |
| 20260503005016 | 19 | 100 | 1.6 | 4.8 | 0.00 | 0.00 | 0.00 | 19 | 1020.9 |
| 20260503004016 | 20 | 125 | 0.0 | 3.2 | 0.00 | 0.00 | 0.00 | 18 | 1020.9 |
| 20260503003017 | 21 | 127 | 3.2 | 8.0 | 0.00 | 0.00 | 0.00 | 17 | 1021.1 |
| 20260503002015 | 22 | 250 | 0.0 | 3.2 | 0.00 | 0.00 | 0.00 | 16 | 1021.1 |
| 20260503001015 | 22 | 290 | 0.0 | 1.6 | 0.00 | 0.00 | 0.00 | 15 | 1021.2 |
| 20260503000015 | 21 | 116 | 0.0 | 3.2 | 0.00 | 0.00 | 0.00 | 15 | 1021.3 |
| 20260502235016 | 21 | 111 | 1.6 | 4.8 | 0.00 | 0.00 | 0.00 | 15 | 1021.4 |
| 20260502234016 | 22 | 101 | 1.6 | 4.8 | 0.00 | 0.00 | 0.00 | 14 | 1021.5 |
| 20260502233017 | 23 | 118 | 0.0 | 1.6 | 0.00 | 0.00 | 0.00 | 14 | 1021.6 |
| 20260502232017 | 23 | 292 | 0.0 | 1.6 | 0.00 | 0.00 | 0.00 | 14 | 1021.7 |
| 20260502231015 | 22 | 246 | 0.0 | 1.6 | 0.00 | 0.00 | 0.00 | 14 | 1021.8 |
| 20260502230016 | 22 | 105 | 1.6 | 6.4 | 0.00 | 0.00 | 0.00 | 15 | 1021.8 |
| 20260502225016 | 23 | 106 | 1.6 | 4.8 | 0.00 | 0.00 | 0.00 | 14 | 1021.9 |
| 20260502224017 | 22 | 264 | 1.6 | 4.8 | 0.00 | 0.00 | 0.00 | 14 | 1022.0 |
| 20260502223017 | 22 | 106 | 1.6 | 4.8 | 0.00 | 0.00 | 0.00 | 14 | 1022.1 |
| 20260502222017 | 22 | 204 | 0.0 | 3.2 | 0.00 | 0.00 | 0.00 | 14 | 1022.2 |
| 20260502221014 | 22 | 129 | 1.6 | 6.4 | 0.00 | 0.00 | 0.00 | 14 | 1022.3 |
| 20260502220035 | 22 | 240 | 1.6 | 3.2 | 0.00 | 0.00 | 0.00 | 14 | 1022.5 |
| 20260502215015 | 22 | 128 | 0.0 | 1.6 | 0.00 | 0.00 | 0.00 | 15 | 1022.6 |
| 20260502214016 | 21 | 147 | 1.6 | 3.2 | 0.00 | 0.00 | 0.00 | 15 | 1022.9 |
| 20260502213016 | 22 | 164 | 4.8 | 14.5 | 0.00 | 0.00 | 0.00 | 16 | 1023.1 |
| 20260502212016 | 21 | 127 | 3.2 | 6.4 | 0.00 | 0.00 | 0.00 | 17 | 1023.2 |